Tucson, AZ

10:57 AM MST on January 19, 2018 (GMT -0700)
Tucson International

Weather History for KTUS - April, 2013

Change the Weather History Date:

Monday, April 1, 2013

  Actual Average Record
Temperature  
Mean Temperature 69 °F 63 °F  
Max Temperature 84 °F 78 °F 95 °F (2011)
Min Temperature 53 °F 49 °F 31 °F (1938)
Degree Days  
Heating Degree Days 0 4  
Month to date heating degree days 0 4  
Since 1 July heating degree days 1336 1450  
Cooling Degree Days 4 2  
Month to date cooling degree days 4 2  
Year to date cooling degree days 95 35  
Growing Degree Days 18 (Base 50)    
Moisture  
Dew Point 27 °F    
Average Humidity 24    
Maximum Humidity 35    
Minimum Humidity 13    
Precipitation  
Precipitation 0.00 in 0.02 in 1.17 in (1999)
Month to date precipitation 0.00 0.02  
Year to date precipitation 1.61 2.55  
Snow  
Snow 0.00 in - - ()
Month to date snowfall 0.0  
Snow Depth 0.00 in    
Sea Level Pressure  
Sea Level Pressure 29.89 in    
Wind  
Wind Speed 5 mph (WNW)    
Max Wind Speed 16 mph    
Max Gust Speed 29 mph    
Visibility 10 miles    
Events      
T = Trace of Precipitation, MM = Missing Value Source: NWS Daily Summary

Daily Weather History Graph

Daily Weather History Graph

Search for Another Location

Airport or City:

Trip Planner

Search our weather history database for the weather conditions in past years. The results will help you decide how hot, cold, wet, or windy it might be!

Date:

Astronomy

Apr. 01, 2013 Rise Set
Actual Time 6:11 AM MST 6:43 PM MST
Civil Twilight 5:47 AM MST 7:08 PM MST
Nautical Twilight 5:18 AM MST 7:37 PM MST
Astronomical Twilight 4:48 AM MST 8:06 PM MST
Moon No Moon Rise 10:17 AM MST (4/1)
Length of Visible Light 13h 21m
Length of Day
12h 32m
Waning Gibbous, 66% of the Moon is Illuminated
Apr 1
Waning Gibbous
Apr 2
Last Quarter
Apr 10
New
Apr 18
First Quarter
Apr 25
Full

Hourly Weather History & Observations

Time (MST) Temp. Dew Point Humidity Pressure Visibility Wind Dir Wind Speed Gust Speed Precip Events Conditions
12:53 AM 64.0 °F 19.9 °F 18% 29.90 in 10.0 mi SE 5.8 mph - N/A   Clear
1:53 AM 61.0 °F 21.9 °F 22% 29.91 in 10.0 mi Calm Calm - N/A   Clear
2:53 AM 60.1 °F 25.0 °F 26% 29.90 in 10.0 mi SSE 3.5 mph - N/A   Clear
3:53 AM 57.0 °F 24.1 °F 28% 29.91 in 10.0 mi Calm Calm - N/A   Clear
4:53 AM 55.9 °F 28.9 °F 36% 29.91 in 10.0 mi Calm Calm - N/A   Clear
5:53 AM 55.0 °F 28.0 °F 35% 29.93 in 10.0 mi Calm Calm - N/A   Clear
6:53 AM 55.0 °F 28.9 °F 37% 29.96 in 10.0 mi Calm Calm - N/A   Clear
7:53 AM 60.1 °F 30.9 °F 33% 29.96 in 10.0 mi SSE 4.6 mph - N/A   Clear
8:53 AM 66.9 °F 33.1 °F 28% 29.96 in 10.0 mi South 4.6 mph - N/A   Clear
9:53 AM 71.1 °F 34.0 °F 26% 29.95 in 10.0 mi Calm Calm - N/A   Clear
10:53 AM 75.0 °F 34.0 °F 22% 29.94 in 10.0 mi NE 3.5 mph - N/A   Clear
11:53 AM 77.0 °F 30.9 °F 19% 29.93 in 10.0 mi Variable 3.5 mph - N/A   Clear
12:53 PM 79.0 °F 30.9 °F 17% 29.90 in 10.0 mi Calm Calm - N/A   Clear
1:53 PM 82.9 °F 27.0 °F 13% 29.87 in 10.0 mi NNW 8.1 mph - N/A   Clear
2:53 PM 82.9 °F 28.9 °F 14% 29.84 in 10.0 mi NW 12.7 mph 17.3 mph N/A   Clear
3:53 PM 82.0 °F 27.0 °F 13% 29.83 in 10.0 mi NW 11.5 mph - N/A   Clear
4:53 PM 82.9 °F 27.0 °F 13% 29.82 in 10.0 mi NW 11.5 mph 19.6 mph N/A   Clear
5:53 PM 81.0 °F 27.0 °F 14% 29.83 in 10.0 mi NW 9.2 mph 19.6 mph N/A   Clear
6:53 PM 78.1 °F 25.0 °F 14% 29.84 in 10.0 mi WNW 11.5 mph - N/A   Clear
7:53 PM 75.0 °F 26.1 °F 16% 29.84 in 10.0 mi NW 9.2 mph - N/A   Clear
8:53 PM 72.0 °F 19.9 °F 14% 29.85 in 10.0 mi NNW 9.2 mph - N/A   Clear
9:53 PM 71.1 °F 19.9 °F 14% 29.86 in 10.0 mi NW 8.1 mph - N/A   Clear
10:53 PM 68.0 °F 21.0 °F 17% 29.86 in 10.0 mi Variable 5.8 mph - N/A   Clear
11:53 PM 61.0 °F 21.0 °F 21% 29.86 in 10.0 mi SW 5.8 mph - N/A   Clear